ON4BN Weather Reports


time (UTC)temp
C
wind
direction
speed
KPH
gust
KPH
rain 1hr
cm
rain 24hr
cm
rain mn
cm
humidity
%
barometer
mb
20260503021523 12 0.0 0.0 9.93 23.42 4.32 95
20260503020534 13 164 0.0 1.6 9.88 23.42 4.14 95
20260503015523 13 0.0 0.0 9.88 23.42 3.96 95
20260503014531 13 0.0 0.0 9.96 23.39 3.81 95
20260503013524 13 134 0.0 3.2 9.96 23.39 3.66 95
20260503012532 13 183 0.0 3.2 9.88 23.39 3.48 95
20260503011543 13 130 1.6 4.8 9.91 23.39 3.30 94
20260503010532 13 141 1.6 4.8 10.01 23.39 3.15 94
20260503005545 14 157 3.2 8.0 10.01 23.37 2.97 94
20260503004531 14 134 3.2 6.4 9.91 23.37 2.82 94
20260503003523 14 130 3.2 8.0 9.93 23.37 2.64 94
20260503002531 14 150 3.2 6.4 10.03 23.37 24.99 93
20260503001547 15 117 3.2 9.7 10.03 23.34 23.32 93
20260503000523 15 125 3.2 8.0 9.93 23.34 21.64 93
20260502235523 15 146 0.0 3.2 9.93 23.34 19.94 93
20260502234534 15 128 1.6 4.8 10.03 23.34 18.36 93
20260502233519 15 142 1.6 4.8 10.01 23.32 16.64 93
20260502232532 15 157 0.0 3.2 9.91 23.32 14.96 93
20260502231523 15 133 1.6 3.2 9.91 23.32 13.28 93
20260502230532 15 125 1.6 3.2 10.01 23.32 11.68 93
20260502225523 15 133 0.0 3.2 10.01 23.29 10.01 93
20260502224534 15 12 0.0 3.2 9.91 23.29 8.31 92
20260502223523 15 129 1.6 3.2 9.91 23.29 6.63 92
20260502222533 15 70 1.6 4.8 9.96 23.29 5.03 92
20260502221523 15 38 1.6 6.4 9.96 23.27 3.35 92
20260502220551 15 64 3.2 8.0 9.88 23.27 16.81 93
20260502215544 15 122 1.6 6.4 9.88 23.27 23.27 93
20260502214531 15 9 4.8 8.0 9.96 23.24 23.09 94
20260502213523 15 360 3.2 4.8 9.93 23.24 22.94 94
20260502212531 15 303 3.2 6.4 9.91 23.24 22.76 94
20260502211523 15 294 6.4 16.1 9.91 23.24 22.61 95
20260502210531 15 153 0.0 3.2 10.01 23.24 22.43 95
20260502205523 15 155 1.6 3.2 9.96 23.22 22.28 95
20260502204534 15 202 0.0 3.2 9.86 23.22 22.10 94
20260502203523 15 160 0.0 3.2 9.88 23.22 21.95 94
20260502202526 15 229 0.0 1.6 9.93 23.19 21.77 93
20260502201523 15 156 0.0 3.2 9.93 23.19 21.62 93
20260502200531 15 166 1.6 3.2 9.86 23.19 21.44 92
20260502195524 16 304 0.0 1.6 9.88 23.19 21.26 92
20260502194532 16 202 1.6 3.2 10.01 23.16 21.11 91
20260502193544 16 171 1.6 3.2 9.98 23.16 20.96 90
20260502192520 16 136 3.2 6.4 9.83 23.16 20.78 89
20260502191523 16 146 4.8 6.4 9.78 23.16 20.60 88
20260502190531 16 136 3.2 6.4 9.83 23.14 20.45 86
20260502185523 16 159 4.8 6.4 9.80 23.14 20.27 82
20260502184554 17 209 6.4 25.7 9.68 23.14 20.12 75
20260502183528 20 180 9.7 24.1 9.65 23.14 19.94 59
20260502182531 21 143 6.4 14.5 9.75 23.14 19.79 57
20260502181523 22 133 6.4 19.3 9.68 23.14 19.63 55
20260502180531 23 197 1.6 3.2 9.58 23.14 19.46 52
20260502163523 26 194 3.2 8.0 9.58 23.16 18.01 46
20260502162556 25 237 3.2 6.4 9.60 23.16 17.86 47
20260502161550 26 293 4.8 8.0 9.58 23.16 17.70 45
20260502160532 25 209 4.8 11.3 9.45 23.16 17.53 46
20260502151523 26 196 8.0 16.1 9.53 23.19 16.74 46
20260502150531 25 209 6.4 19.3 9.63 23.19 16.59 46
20260502130531 23 265 3.2 9.7 9.75 23.16 14.66 54
20260502123543 24 230 4.8 11.3 9.68 23.16 14.17 53
20260502122613 24 225 3.2 8.0 9.78 23.16 14.02 53
20260502121526 22 294 8.0 16.1 9.80 23.14 13.84 57
20260502120527 23 212 4.8 12.9 9.75 23.14 13.69 55
20260502115524 23 243 3.2 8.0 9.75 23.11 13.51 55
20260502114531 22 233 4.8 14.5 9.83 23.11 13.36 56
20260502113546 22 292 9.7 17.7 9.80 23.11 13.21 57
20260502112532 23 229 4.8 12.9 9.73 23.11 13.03 54
20260502111525 23 245 4.8 11.3 9.68 23.11 12.85 54
20260502110522 23 227 6.4 14.5 9.75 23.11 12.70 55
20260502105523 22 193 9.7 16.1 9.75 23.09 12.55 55
20260502104532 23 196 6.4 11.3 9.65 23.09 12.37 55
20260502103524 23 206 6.4 11.3 9.65 23.09 12.22 54
20260502102531 22 200 6.4 11.3 9.73 23.09 12.06 55
20260502101524 23 190 6.4 12.9 9.73 23.09 11.89 54
20260502100531 22 183 9.7 16.1 9.60 23.09 11.73 54
20260502090553 21 185 4.8 12.9 9.65 23.09 10.77 57
20260502071524 17 196 4.8 11.3 9.63 23.11 8.99 60
20260502070535 17 214 4.8 9.7 9.73 23.11 8.84 59
20260502065524 17 202 6.4 16.1 9.75 23.11 8.69 57
20260502064541 17 203 4.8 12.9 9.68 23.11 8.53 56
20260502063524 16 187 4.8 9.7 9.68 23.11 8.36 56
20260502062522 15 208 4.8 9.7 9.75 23.11 8.20 57
20260502061525 16 197 3.2 11.3 9.78 23.11 8.05 55
20260502060531 15 183 6.4 11.3 9.68 23.11 7.87 55
20260502055519 14 184 6.4 9.7 9.68 23.11 7.72 59
20260502054533 13 200 4.8 11.3 9.78 23.11 7.54 61
20260502053525 13 191 4.8 9.7 9.78 23.09 7.39 61
20260502052553 13 191 4.8 6.4 9.68 23.09 7.21 60
20260502051523 13 220 0.0 3.2 9.68 23.09 7.06 57
20260502050531 13 201 3.2 6.4 9.78 23.09 6.91 56
20260502045528 13 196 3.2 8.0 9.78 23.09 6.73 56
20260502044554 13 193 6.4 11.3 9.65 23.09 6.58 56
20260502043523 13 178 4.8 8.0 9.65 23.09 6.40 56
20260502042531 13 208 4.8 9.7 9.75 23.09 6.25 54
20260502041523 13 212 6.4 11.3 9.75 23.09 6.10 55
20260502040532 12 188 3.2 6.4 9.65 23.06 5.92 57
20260502035523 11 195 1.6 4.8 9.63 23.06 5.77 63
20260502034532 10 165 1.6 3.2 9.75 23.06 5.61 68
20260502033545 9 148 0.0 3.2 9.75 23.06 5.44 72
20260502032531 9 0.0 1.6 9.65 23.06 5.28 74
20260502031523 8 98 0.0 1.6 9.63 23.06 5.11 75
20260502030531 8 0.0 0.0 9.73 23.06 4.95 75
20260502025523 8 163 1.6 3.2 9.75 23.06 4.80 76
20260502024525 8 171 1.6 3.2 9.63 23.06 4.62 77
20260502023523 8 0.0 1.6 9.63 23.06 4.47 79
20260502022536 8 137 0.0 1.6 9.68 23.06 4.32 78